Theta_e
344 342 340 337 332 335 337 337 338 341 341 341 341 341 342 341 342 342 332 328 338 342 341 333 326 327 327 328 329 332 330 326 329 332 331 331 332 332 331 331 331 331 331 331 330 329 329 330 330 329 328 328 329 332 332 332 332 330 329 329 330 329 328 328 329 328 329 329 330 330 330 330 330 331 331 330 329 329 330 329 328 329 330 330 330
344 342 340 337 332 334 338 337 337 339 340 341 341 341 341 341 342 342 332 330 340 341 342 338 332 331 331 331 330 331 330 330 333 335 335 334 334 335 335 334 334 334 334 333 332 330 329 329 329 329 328 327 328 330 332 332 332 330 328 329 329 328 328 329 329 327 328 329 329 330 331 331 331 331 330 330 330 331 331 330 328 328 329 329 329
344 343 341 337 332 334 337 336 336 337 339 340 341 341 341 341 342 342 335 333 341 342 341 341 339 337 336 336 333 332 333 334 334 335 336 335 335 335 335 335 336 335 335 334 333 331 330 330 329 329 328 327 327 329 330 331 331 330 329 328 327 327 327 328 328 328 329 328 327 326 327 330 331 330 330 329 330 330 330 330 329 329 329 327 327
345 344 341 338 335 335 336 336 335 335 336 339 340 340 339 341 342 341 338 337 341 341 341 341 341 340 339 339 337 335 335 335 335 335 336 335 336 335 335 336 336 334 332 332 333 331 330 330 329 329 328 326 327 328 329 330 330 330 329 327 326 326 327 328 329 330 331 330 329 325 323 325 327 328 328 328 329 330 329 329 329 329 329 328 327
345 344 341 339 337 336 336 336 335 334 335 337 339 339 339 341 342 341 339 339 341 340 341 340 341 341 339 339 339 338 337 336 335 336 336 336 336 336 336 336 334 331 330 331 332 331 330 330 330 329 327 326 326 327 328 328 329 330 329 327 326 328 328 328 328 328 329 329 329 326 325 324 323 325 325 325 326 327 325 326 328 328 328 328 328
346 344 341 340 339 337 337 336 334 334 335 336 338 338 339 341 342 341 339 339 340 340 341 340 341 340 339 339 338 338 337 336 335 336 336 336 337 336 336 335 333 331 331 332 331 331 331 330 329 328 327 327 326 326 327 328 329 329 329 327 326 327 326 325 325 326 326 326 326 326 328 327 325 326 326 325 325 324 323 326 328 327 328 328 328
345 344 341 341 341 338 337 335 333 333 335 337 337 338 340 341 342 342 340 339 339 339 340 340 341 340 339 339 339 338 337 336 336 336 336 337 337 336 335 333 333 332 332 331 330 330 331 329 328 327 327 326 327 327 327 327 328 328 328 327 327 326 323 324 326 326 326 326 327 327 327 328 328 329 329 328 327 326 326 328 329 328 328 329 328
345 344 342 342 342 340 338 335 334 333 335 338 337 339 340 341 342 342 341 339 338 339 340 340 341 340 340 339 339 338 337 337 337 336 337 337 336 335 333 332 332 331 330 330 329 330 330 328 327 327 327 327 327 327 327 327 327 327 326 326 327 325 323 325 326 326 327 327 328 328 328 329 328 329 330 329 329 328 328 329 330 329 330 330 329
344 344 342 343 342 340 338 336 334 333 337 338 337 339 341 341 341 341 341 339 339 340 340 340 341 340 340 339 339 338 338 337 337 337 337 337 335 332 331 330 329 327 327 329 330 330 329 327 328 327 327 327 327 326 327 326 326 326 324 325 327 325 324 327 326 326 326 326 328 330 330 329 328 329 330 330 329 329 329 330 330 330 330 330 330
344 344 342 343 343 340 338 335 334 333 338 338 337 339 340 341 341 341 340 339 339 340 340 340 340 340 339 339 339 338 338 337 338 338 337 336 332 328 326 326 324 322 324 328 330 329 328 327 327 327 327 327 327 327 326 326 326 325 322 325 325 324 326 326 326 327 327 327 328 330 331 330 329 329 330 330 330 330 330 328 328 329 330 330 331
344 343 343 343 343 341 338 336 334 334 338 338 337 338 340 341 340 340 339 338 339 339 340 339 340 339 339 339 339 338 338 338 338 337 336 334 329 325 325 325 323 323 326 328 329 328 327 327 327 327 327 327 326 326 326 326 325 322 322 323 322 324 327 326 327 328 328 329 330 331 332 331 329 329 330 329 329 329 329 328 329 330 331 331 332
343 343 342 343 343 341 338 336 335 335 338 338 337 338 339 340 340 340 337 336 338 339 339 339 339 339 339 339 339 338 338 338 337 335 334 331 328 327 329 327 325 326 328 328 328 327 327 327 327 326 327 326 326 325 325 324 321 320 320 320 321 325 326 326 328 328 328 331 332 332 332 332 331 330 330 329 328 329 329 330 331 332 332 332 331
343 343 342 343 343 341 339 336 336 336 338 337 337 339 338 340 340 338 335 335 337 338 339 339 339 339 339 339 339 338 337 336 335 333 332 329 328 330 330 328 327 327 328 327 327 327 326 327 326 326 326 326 326 325 324 320 315 315 316 319 324 327 327 327 329 329 331 332 333 333 333 332 332 333 332 331 331 331 331 332 332 332 332 332 331
342 343 343 344 343 340 339 337 336 337 338 337 337 339 338 339 340 337 333 334 337 338 339 339 339 339 339 339 338 338 337 335 334 333 330 328 330 330 329 328 328 327 327 327 326 326 326 326 325 326 326 326 325 325 324 318 312 313 317 323 327 328 328 329 329 331 332 333 333 333 333 333 333 334 333 333 333 332 332 332 332 332 332 331 330
341 343 343 344 342 341 339 337 337 338 338 338 337 338 338 338 339 336 332 334 337 338 338 338 338 338 338 338 338 337 335 334 333 330 328 329 330 329 328 328 328 327 327 326 326 325 326 325 325 326 326 325 325 324 323 319 316 317 324 327 327 328 330 330 331 333 333 333 333 333 334 334 334 334 334 333 332 332 332 331 331 330 330 329 328
340 343 343 344 342 341 340 337 337 339 338 337 337 337 337 338 338 334 332 335 338 338 338 338 338 338 338 337 337 335 334 333 330 327 328 330 330 329 328 328 327 327 326 326 325 324 324 325 324 326 326 325 325 324 322 322 321 322 326 327 328 329 330 331 332 333 333 333 333 334 334 334 333 333 333 332 331 331 330 330 329 328 326 325 325
341 343 343 343 342 341 340 338 338 339 338 337 337 337 337 338 338 335 335 337 338 338 338 338 337 337 337 336 335 333 333 330 327 327 330 330 329 328 328 327 327 327 326 326 325 323 323 324 324 325 325 324 324 323 322 323 323 324 327 328 329 330 331 332 333 333 333 334 334 334 334 334 333 333 332 331 331 330 329 328 327 326 325 324 323
341 342 343 343 342 340 340 339 339 339 338 336 336 337 335 337 338 337 337 338 337 338 338 337 337 336 335 334 333 333 331 328 327 330 330 329 328 327 327 327 326 326 325 324 323 323 323 324 325 325 325 325 324 322 322 323 324 325 327 328 330 331 333 333 333 334 333 333 334 333 333 332 332 332 331 330 330 329 327 326 326 326 325 323 322
341 342 342 342 341 340 340 340 340 339 338 336 335 337 335 335 338 338 338 338 337 337 337 337 336 335 334 333 332 331 329 328 330 330 329 327 327 326 325 325 325 325 324 323 323 324 324 324 324 325 325 324 323 322 323 323 324 326 328 329 332 333 333 333 333 333 332 332 332 332 332 331 331 331 329 328 328 327 326 325 325 324 322 321 321
339 341 341 341 341 341 340 340 339 339 338 336 335 336 335 334 336 337 338 338 338 337 337 336 336 335 333 331 331 330 329 330 330 329 327 326 326 323 321 322 324 324 323 323 324 325 324 324 325 326 325 323 322 322 323 324 325 326 328 331 333 333 334 333 333 332 331 331 330 330 329 329 328 328 328 327 326 326 326 324 323 322 321 320 320
338 341 341 340 340 340 340 339 339 338 338 337 336 336 336 334 334 335 337 338 337 337 337 336 335 335 332 330 330 331 330 330 328 327 327 327 325 321 321 323 323 323 323 324 325 325 324 325 325 325 322 321 322 324 325 325 326 327 330 332 332 333 332 332 331 330 329 328 328 328 327 327 327 327 326 325 326 325 324 323 322 321 320 320 319
339 340 340 340 340 340 340 339 339 339 338 337 337 336 336 335 334 334 336 336 337 337 336 335 335 333 331 330 331 331 329 328 326 327 327 326 322 320 323 323 322 323 324 325 326 325 325 325 324 321 320 321 324 326 328 328 328 329 331 332 331 331 331 330 329 328 327 327 327 327 326 326 327 327 324 323 323 322 322 321 320 319 319 318 317
339 339 339 340 340 339 339 339 338 338 338 337 337 337 336 336 334 334 335 335 335 336 336 335 334 332 331 330 331 329 328 327 325 326 325 323 320 320 323 323 323 325 326 327 327 326 325 323 321 320 321 324 326 328 328 329 329 330 330 330 329 329 329 328 328 327 327 327 326 325 325 325 325 324 322 320 319 319 319 319 318 317 316 316 315
338 339 339 339 339 339 339 338 338 338 337 336 336 336 336 336 335 334 335 336 335 335 335 334 334 332 330 330 329 328 327 326 325 324 322 321 321 321 323 324 324 326 327 327 327 326 324 321 321 322 324 326 327 327 327 328 329 329 329 328 328 327 327 326 326 325 325 324 324 324 324 324 323 321 319 318 317 317 317 316 316 315 315 314 313
338 338 338 338 338 338 338 337 337 337 336 335 335 335 335 335 335 334 334 335 334 335 335 333 333 332 330 330 329 328 328 327 325 323 321 322 322 322 324 324 325 326 327 327 327 325 322 321 323 324 325 327 327 327 326 326 327 327 326 326 325 325 324 323 323 322 322 321 321 322 322 322 321 319 317 317 316 315 315 315 314 313 313 312 312
336 337 337 336 336 336 336 336 336 336 335 334 334 334 334 335 335 334 334 334 334 334 334 333 333 331 330 330 330 329 329 327 326 323 321 323 323 323 325 325 326 326 327 327 325 322 321 323 324 324 325 325 325 325 325 324 325 324 323 324 323 322 322 321 321 320 320 320 320 320 320 320 320 319 317 317 316 315 315 314 313 313 312 312 311
329 334 336 335 335 335 335 335 335 334 334 332 331 332 333 334 334 334 334 334 333 333 333 333 333 331 330 331 331 329 329 327 325 322 322 323 322 324 326 326 326 326 326 326 323 322 322 323 324 324 323 324 323 322 323 323 322 321 322 322 320 320 320 320 320 319 319 319 319 319 318 318 318 317 317 316 315 315 315 314 313 312 312 311 311
322 327 334 336 334 335 335 335 334 333 333 332 331 332 333 334 333 333 334 334 333 332 333 333 333 331 330 331 331 329 328 326 324 322 322 322 322 324 326 326 325 325 325 324 323 323 323 323 323 322 323 323 321 321 321 321 321 321 319 319 319 319 318 319 319 318 318 318 318 318 317 317 317 316 316 315 315 315 314 313 313 312 311 311 310
320 324 330 334 335 335 335 335 334 333 332 331 331 331 332 333 333 333 333 333 332 332 332 333 333 332 331 332 331 329 328 326 324 324 323 322 322 324 325 326 325 325 325 324 324 324 323 323 322 322 322 322 320 319 320 319 320 320 318 317 317 317 317 318 317 317 316 316 316 316 316 315 315 315 314 314 314 314 313 312 312 312 311 311 310
319 322 325 330 334 335 335 335 335 333 332 331 331 331 332 332 332 332 333 333 332 332 332 333 333 332 332 331 330 329 328 327 325 324 324 323 323 324 325 325 325 325 325 324 324 324 323 322 321 321 320 320 319 317 317 318 319 319 318 315 314 315 315 315 315 315 315 314 314 314 313 313 313 313 313 313 312 312 312 312 312 311 311 310 309
318 319 321 325 328 331 335 336 334 333 331 331 332 332 332 332 332 332 333 333 332 332 332 333 333 333 332 331 330 329 328 327 325 324 324 324 324 324 325 325 324 325 325 325 325 324 323 321 320 320 320 320 319 316 316 318 318 318 317 315 313 313 312 313 313 313 313 313 313 312 312 311 311 311 311 311 311 311 310 311 311 310 310 310 309
317 317 319 323 326 326 331 335 335 332 331 331 333 334 334 333 332 333 333 333 332 332 332 333 334 333 332 331 330 329 328 326 324 324 324 324 324 324 324 324 325 325 325 325 324 322 321 320 320 320 320 320 318 315 316 318 317 315 315 313 312 312 311 311 311 311 311 311 311 311 310 310 310 310 310 310 310 310 309 310 310 310 310 309 309
316 316 317 319 324 325 327 332 334 332 330 332 334 334 334 334 332 332 332 332 332 332 332 332 333 333 331 330 329 329 328 326 324 324 324 323 324 324 324 324 325 325 326 325 323 320 319 319 319 319 320 320 318 316 315 316 314 312 312 311 311 310 310 309 309 309 309 309 309 309 309 308 308 308 308 308 308 308 308 308 309 309 309 309 308
315 316 316 316 320 323 324 327 331 332 331 331 334 334 333 333 332 331 331 331 332 332 332 332 331 332 330 329 329 329 328 326 324 324 323 323 323 324 324 324 324 324 325 324 321 320 320 319 319 319 319 319 318 315 315 313 311 310 309 309 309 308 308 308 308 308 308 308 307 308 307 307 307 307 307 306 306 307 307 307 307 307 308 308 307
315 316 316 315 317 319 322 324 326 329 331 331 334 334 333 333 332 331 331 331 331 332 332 331 331 331 330 330 329 329 328 326 324 324 323 323 323 323 323 323 323 324 325 323 321 319 318 319 320 320 317 317 316 313 313 312 309 308 307 307 307 306 307 307 306 307 307 307 307 306 306 305 305 305 305 305 305 305 305 305 305 306 306 306 306
313 315 316 316 316 317 320 323 323 326 330 331 333 333 333 333 332 332 332 331 331 331 332 331 331 330 330 329 329 328 327 326 324 324 323 323 323 323 322 322 323 324 324 323 321 318 317 317 319 320 317 314 313 311 310 310 307 306 305 305 304 304 305 304 304 305 305 306 306 305 304 304 304 303 303 303 303 304 304 304 304 304 304 304 304
312 313 315 316 317 317 318 320 322 324 327 330 332 332 332 332 332 332 331 331 331 331 331 331 330 330 329 329 328 326 326 325 324 324 323 323 323 322 322 321 322 324 324 322 321 318 317 317 316 318 319 315 311 309 307 306 305 303 303 303 302 302 302 302 302 302 303 305 305 304 303 303 302 302 301 301 301 302 302 302 302 302 302 302 302
311 312 313 315 317 317 317 317 319 322 324 327 330 332 332 332 332 331 331 331 330 330 331 330 330 329 328 328 327 325 324 324 324 323 323 323 322 321 320 321 322 324 323 322 320 317 317 317 316 315 317 317 312 309 306 304 303 301 300 300 300 300 299 299 300 301 302 303 302 302 302 301 301 300 299 299 297 296 298 301 300 301 300 300 300
310 312 312 313 315 316 317 316 316 318 320 324 327 330 331 331 331 331 330 330 330 329 329 329 329 327 326 327 327 325 323 323 323 323 322 321 321 320 320 320 322 322 322 320 317 316 315 315 316 313 312 314 313 309 306 303 301 299 299 297 297 297 297 297 299 300 300 300 299 299 298 298 297 296 295 294 291 291 296 300 298 297 296 296 297
309 311 312 312 314 315 316 317 316 316 318 321 323 327 330 330 330 329 329 329 328 328 329 328 328 327 326 325 325 324 323 322 322 322 321 320 319 319 320 322 322 322 321 319 316 315 314 314 314 313 309 307 307 307 305 303 300 297 296 296 295 295 295 296 297 298 297 295 295 294 294 293 293 292 291 290 289 289 293 295 293 292 291 292 295
308 309 311 312 313 314 315 316 316 316 318 319 321 324 327 328 329 328 328 328 328 327 327 327 327 327 326 325 324 323 322 321 321 321 320 320 320 321 323 323 323 323 322 320 317 316 315 314 312 311 310 306 302 302 304 305 301 296 294 294 294 294 293 294 295 294 293 291 291 291 290 290 289 288 287 287 287 288 289 290 290 290 291 293 295
307 308 310 312 312 313 314 315 316 316 317 318 320 323 324 325 326 327 327 327 327 327 326 327 326 326 326 326 324 323 322 321 320 319 319 319 321 323 324 323 323 323 321 319 317 316 314 313 311 309 308 307 304 301 303 306 301 296 295 293 292 293 292 292 292 292 290 289 289 289 288 288 287 286 286 286 286 286 287 287 288 288 289 291 293
307 308 308 310 311 313 313 314 316 316 317 317 319 322 323 323 323 325 325 326 326 326 326 326 325 324 325 325 323 322 321 320 319 319 319 320 322 323 323 323 323 322 320 316 315 314 312 311 311 310 307 305 303 303 305 307 303 298 297 297 295 294 292 291 291 291 290 289 289 288 287 287 287 286 286 286 286 286 285 285 286 286 287 289 290
307 308 307 308 310 312 313 314 314 316 316 317 318 320 323 322 323 323 323 323 323 324 324 323 323 322 322 322 321 321 320 319 318 318 319 320 323 324 323 322 322 321 319 317 314 313 312 311 311 310 308 303 300 301 305 306 306 304 302 300 297 296 295 292 289 289 290 289 289 288 288 287 287 286 286 286 286 285 285 285 285 285 286 287 288
307 307 307 307 308 310 313 313 313 315 316 318 318 319 320 321 322 322 320 319 317 319 320 320 320 319 319 319 319 319 318 318 318 318 319 322 323 323 323 322 321 319 318 318 316 314 313 311 311 310 310 307 302 301 303 304 307 309 307 302 299 299 297 291 290 289 288 289 288 288 287 287 286 286 286 285 285 285 285 284 284 284 284 285 286
307 306 306 306 307 308 311 312 313 313 315 317 318 318 318 319 321 321 320 317 314 315 316 316 316 317 317 317 318 317 317 318 318 319 320 322 323 323 323 323 321 319 317 317 316 314 312 311 312 311 310 311 307 303 302 303 306 308 307 306 304 302 296 291 292 291 288 288 288 287 287 286 286 286 285 285 284 284 284 284 283 283 283 284 284
307 306 306 306 307 307 309 311 312 312 313 315 317 317 317 318 319 320 321 319 316 315 315 315 315 315 316 316 316 316 316 317 318 319 321 322 323 323 323 323 322 321 318 317 316 314 313 311 311 311 310 311 309 305 303 302 305 305 304 305 304 302 298 295 294 292 289 288 287 286 287 286 286 285 285 284 284 284 284 283 283 282 282 283 284
308 307 307 306 307 307 308 310 311 312 312 313 315 316 317 317 318 318 319 320 318 316 315 316 315 314 316 316 315 315 315 317 318 320 321 323 323 323 323 322 322 321 318 317 317 316 314 310 309 310 309 309 309 308 305 302 304 304 301 302 302 300 299 297 296 294 291 289 287 286 286 286 285 285 284 284 284 284 283 283 282 282 282 282 282
308 308 307 306 306 306 307 308 310 311 311 312 314 315 316 316 317 316 316 316 316 314 314 315 314 314 315 315 315 314 313 315 318 320 321 322 323 323 323 321 320 319 317 316 316 316 313 310 308 308 307 308 309 309 307 303 304 304 301 300 299 297 296 296 295 294 292 290 289 286 285 285 285 285 285 284 284 283 283 282 282 281 281 282 282
308 308 307 306 306 306 307 308 309 310 311 311 312 313 314 314 314 315 314 314 313 313 312 312 312 313 313 312 313 312 312 315 317 319 321 321 321 323 322 321 319 318 317 315 313 312 312 311 309 308 307 307 308 308 308 305 304 304 302 299 298 296 295 294 294 294 292 291 290 287 285 285 285 285 285 284 284 284 283 282 282 281 281 281 281
308 308 307 306 306 305 306 307 307 309 310 311 311 312 313 313 313 313 313 313 313 312 311 310 310 312 314 313 312 311 312 314 315 316 318 319 320 321 320 320 319 317 316 314 312 310 310 310 309 308 307 307 307 307 307 305 303 303 302 300 299 298 297 296 294 294 293 290 289 288 286 286 286 285 284 284 284 283 283 282 281 281 281 281 281
Wind_Speed
29 31 34 38 34 31 27 27 27 26 25 24 23 22 23 24 25 26 27 27 23 22 22 23 24 25 25 25 25 24 23 24 24 24 23 23 23 22 21 20 19 18 17 16 16 15 15 16 15 15 15 15 16 17 17 17 17 18 18 17 17 18 19 19 19 20 20 19 19 19 18 17 17 16 16 17 18 17 16 15 15 16 16 16 15
32 32 36 39 36 33 29 28 27 27 26 25 23 22 24 24 25 26 28 27 23 22 22 22 23 23 24 24 24 24 24 24 23 23 22 21 22 21 20 19 18 17 17 16 16 15 16 16 16 16 15 15 15 16 16 17 16 17 17 15 17 18 19 19 19 19 18 17 17 17 17 16 15 15 16 17 17 17 16 14 16 17 18 17 17
33 32 37 40 36 34 31 29 27 27 27 26 25 23 24 24 25 26 28 27 23 22 22 22 21 22 22 22 22 24 24 23 23 23 21 21 21 20 20 19 18 17 16 15 15 16 16 16 16 16 15 15 16 16 16 16 15 16 16 16 18 19 19 19 19 18 17 17 16 15 14 14 14 14 14 15 16 17 16 14 15 16 16 18 18
32 32 37 40 36 35 31 29 28 28 28 27 26 25 25 24 24 26 27 27 24 23 22 21 20 21 22 22 21 22 22 22 22 21 21 21 20 20 19 18 17 15 15 15 15 16 17 17 16 16 16 16 16 16 15 15 15 15 15 16 18 19 18 18 17 16 16 16 16 14 12 11 11 12 12 12 15 16 15 15 15 14 14 16 17
31 32 37 40 37 36 31 30 29 29 29 28 27 26 26 24 25 26 28 26 24 23 22 22 20 20 22 22 21 21 21 21 21 21 20 21 20 19 17 16 15 13 14 15 16 17 18 17 17 17 16 17 17 16 16 16 15 15 14 15 17 18 18 17 15 13 12 11 12 12 11 12 11 10 11 12 14 14 14 16 16 15 14 14 16
30 31 36 39 36 36 33 31 30 30 30 29 27 27 28 26 25 27 29 26 24 24 22 22 21 20 22 22 21 21 21 21 22 21 21 20 19 18 17 16 14 14 15 16 16 18 18 18 18 17 17 17 17 17 17 15 14 14 13 14 16 18 18 17 15 13 11 11 14 14 12 13 13 12 12 12 13 13 13 14 14 13 13 14 15
29 30 34 38 35 36 34 33 31 30 30 28 28 28 29 27 26 27 28 26 25 24 23 22 21 21 21 22 22 21 21 22 22 22 21 19 18 17 17 16 15 16 16 16 17 18 18 18 18 18 17 17 18 17 16 15 14 14 13 14 16 18 17 16 15 14 13 14 15 12 10 11 13 14 13 13 13 13 13 12 12 12 14 14 14
28 28 32 36 35 36 35 34 32 31 30 28 28 30 30 28 28 27 27 26 26 25 23 22 21 21 22 21 22 22 22 22 22 22 21 19 18 18 18 17 17 16 16 17 17 18 19 19 18 18 18 18 17 17 16 14 14 13 12 14 16 16 16 16 16 15 13 12 14 11 10 11 13 15 13 14 14 14 14 13 13 13 14 14 13
27 26 31 34 33 36 35 35 34 32 30 28 28 30 31 29 29 28 26 25 25 24 23 23 21 22 22 22 22 22 22 22 22 21 19 18 18 18 18 18 16 15 16 17 18 19 19 19 19 19 18 18 17 16 15 14 13 11 12 13 15 16 15 15 14 14 12 8 10 12 12 11 12 14 13 13 13 14 13 12 12 13 13 13 12
26 27 31 32 32 35 36 35 34 33 31 28 28 31 30 29 30 29 27 26 25 24 23 23 22 23 23 22 23 23 23 22 22 20 18 18 18 17 17 17 15 14 16 18 19 19 19 19 19 19 18 17 17 15 14 13 12 10 12 13 15 16 13 11 11 13 11 7 9 11 12 10 11 13 11 11 12 13 12 11 11 11 12 14 18
25 27 31 30 32 36 36 35 34 33 31 29 28 30 29 29 30 29 29 27 25 24 24 23 23 23 23 23 23 24 23 22 21 19 18 17 17 17 16 15 14 15 17 19 19 19 19 19 19 18 18 17 16 14 14 13 11 11 12 14 16 14 11 11 12 13 12 10 9 9 11 10 10 12 10 10 11 11 10 10 11 14 19 24 28
24 27 29 28 31 36 37 35 34 33 32 29 28 30 29 29 29 30 30 28 26 25 25 24 23 23 24 24 24 24 23 21 20 18 17 17 17 16 16 15 15 17 18 18 19 19 18 18 18 18 17 17 15 13 13 12 12 12 13 15 16 13 12 13 12 11 10 9 7 7 9 9 10 11 11 12 12 11 12 14 20 26 29 30 31
25 27 29 29 31 36 36 35 35 33 32 29 29 29 29 29 29 30 30 29 27 25 25 25 24 24 25 24 24 23 22 22 20 18 17 18 18 17 18 17 17 18 18 18 18 18 17 17 17 17 16 16 14 13 12 11 13 13 15 18 16 13 13 13 11 10 9 8 8 9 10 9 11 11 11 13 14 17 22 26 29 32 30 28 29
26 27 28 30 33 37 37 35 35 33 31 29 30 30 30 30 30 29 29 30 28 26 26 26 25 25 25 24 23 22 22 22 20 19 19 19 19 18 18 18 17 18 18 18 17 18 17 16 16 16 16 15 14 13 12 12 15 17 19 19 15 14 14 13 10 9 8 9 10 11 10 10 11 13 14 19 24 28 31 32 31 31 29 27 26
26 28 28 30 34 38 37 36 35 33 32 30 30 30 30 30 30 29 29 30 28 27 27 26 26 26 26 24 23 22 22 22 20 20 20 19 19 18 18 18 17 17 18 18 18 18 16 16 16 16 15 14 13 12 13 15 17 20 20 18 16 15 15 14 9 7 9 11 12 12 11 12 16 21 25 29 33 33 31 30 30 29 27 26 24
27 28 30 31 34 38 38 36 35 33 33 31 30 31 31 31 31 30 30 31 28 28 28 27 27 26 26 25 24 24 23 22 22 21 20 19 19 19 19 18 18 18 17 17 18 18 16 16 16 16 15 14 13 12 14 16 18 21 19 16 15 14 14 13 9 9 12 13 13 14 17 21 27 30 31 32 32 31 28 29 29 28 26 25 23
26 27 31 33 35 38 38 37 36 34 33 32 31 31 31 31 32 32 31 30 29 28 28 27 27 27 27 27 26 25 23 22 22 22 21 21 20 20 20 19 19 19 17 16 16 17 17 16 17 17 15 14 12 13 15 15 17 18 17 14 13 13 13 12 10 11 14 15 17 22 26 28 30 31 30 30 30 28 27 27 27 26 25 24 22
24 27 30 32 35 37 38 37 37 35 33 32 32 31 31 31 31 32 30 29 30 29 29 28 28 28 28 28 27 25 24 23 23 23 23 22 21 21 20 19 19 18 18 17 16 16 18 17 17 16 15 14 13 14 15 14 15 17 15 12 11 11 12 13 14 16 18 21 25 29 30 30 30 30 30 30 29 27 27 27 26 24 23 22 20
25 28 29 29 32 34 37 38 37 36 34 33 33 32 31 31 31 31 30 29 30 30 30 30 29 29 29 27 27 26 25 25 24 24 24 22 21 21 20 19 18 18 18 17 17 17 18 18 17 17 16 15 14 14 14 14 16 17 15 12 11 13 15 19 22 24 26 28 31 32 31 32 31 30 29 29 28 27 27 26 24 21 19 19 20
25 28 29 28 29 32 36 38 38 38 36 35 34 33 32 31 31 30 30 29 30 31 31 31 30 29 28 27 27 27 26 25 24 23 22 22 21 19 18 18 18 18 19 18 18 18 19 18 18 17 16 15 15 14 13 15 16 16 14 12 15 18 22 26 28 30 32 31 33 33 32 32 30 29 29 28 27 27 26 24 23 21 20 21 22
24 26 29 28 28 32 35 37 38 38 37 36 36 35 33 32 31 30 30 29 29 30 31 31 30 29 28 28 28 27 27 26 25 24 23 22 19 18 19 18 18 19 20 19 18 19 20 19 18 17 17 16 14 14 14 16 16 16 14 16 22 26 28 31 31 32 32 31 31 31 30 30 28 28 28 27 26 25 24 23 23 22 22 23 23
22 25 27 28 30 33 34 35 36 35 36 35 34 36 35 34 32 30 30 29 28 28 31 32 30 30 30 30 29 27 27 26 25 25 23 21 18 19 21 19 20 21 20 20 19 20 21 20 18 17 16 15 15 17 18 18 17 16 17 22 30 33 33 33 32 32 31 30 29 28 28 28 27 26 26 26 25 25 24 24 24 24 24 24 23
20 23 26 29 32 33 32 33 35 33 33 34 32 34 35 35 34 32 31 30 29 29 31 32 31 32 32 31 28 28 28 26 25 24 22 21 19 21 22 20 21 21 20 21 21 21 20 20 18 17 16 17 19 21 20 20 20 19 24 30 33 35 35 35 33 32 31 30 28 26 26 27 26 26 25 25 26 26 26 26 26 26 25 25 24
21 23 25 30 32 33 33 32 34 33 31 31 30 32 34 34 34 33 33 32 30 30 31 32 32 33 33 30 28 28 27 24 24 23 22 22 21 23 23 22 21 21 21 21 22 21 21 20 19 18 17 19 21 22 21 23 25 25 30 34 34 35 35 35 34 32 31 30 29 27 25 25 26 26 26 26 27 28 28 27 27 26 25 24 24
24 24 25 29 30 32 34 32 33 35 32 30 30 31 34 34 33 33 33 33 32 31 32 34 34 34 33 29 27 28 25 24 24 23 24 24 24 24 24 23 21 20 20 21 23 22 22 21 20 18 17 20 23 23 23 26 30 30 32 34 35 36 35 35 34 32 31 29 28 27 25 25 26 27 27 27 28 28 28 27 26 25 24 24 23
21 25 27 29 30 31 33 33 33 35 34 31 29 29 33 34 33 33 32 32 34 32 33 36 35 34 33 29 28 28 26 26 26 24 25 26 26 26 25 23 21 20 20 22 25 24 24 22 21 20 18 20 25 24 24 28 32 33 34 34 34 35 34 35 34 32 31 29 28 27 26 27 27 27 27 28 28 27 26 26 25 24 23 23 22
18 20 28 30 30 31 33 34 34 35 34 32 30 27 31 33 32 34 32 31 35 34 34 36 35 35 33 30 30 30 29 28 27 25 25 27 27 27 25 23 22 20 22 24 26 26 25 20 19 23 20 19 24 24 23 28 31 33 35 34 33 34 33 34 34 33 32 30 28 26 26 27 27 27 27 27 26 25 25 25 24 23 22 22 22
20 20 21 29 30 32 34 34 34 34 34 33 31 28 30 33 32 33 33 32 34 35 36 37 36 36 33 32 32 31 30 29 27 26 25 27 27 26 25 23 22 21 23 25 26 27 23 18 20 24 21 19 21 23 24 27 30 33 35 35 33 33 33 34 33 32 32 31 29 27 26 26 26 26 25 25 25 24 23 23 22 22 21 21 21
19 22 17 21 29 32 34 35 35 34 34 33 32 29 30 33 33 33 34 34 34 35 37 37 36 36 35 33 33 32 31 29 28 28 26 28 28 26 25 23 22 23 24 25 26 25 21 19 22 24 22 21 22 24 26 27 30 32 33 34 34 33 34 33 33 32 32 31 30 29 27 26 25 25 24 24 24 23 22 22 21 21 20 21 20
17 19 18 15 20 28 33 35 35 34 34 34 32 31 31 33 34 34 34 34 34 36 37 37 35 36 36 34 32 32 31 29 29 29 28 29 28 27 26 25 24 24 26 26 25 24 22 22 24 24 23 24 25 25 27 29 31 32 31 32 33 33 33 33 33 32 32 31 31 30 29 28 26 24 24 23 23 23 21 20 20 19 19 19 18
17 17 15 16 13 15 29 36 36 34 34 33 32 32 32 32 35 35 34 35 35 36 38 39 36 36 37 34 32 31 30 30 30 30 30 30 29 28 27 27 26 24 26 27 24 24 24 24 24 25 24 26 28 27 28 31 31 31 30 30 32 32 32 31 32 32 31 31 30 30 29 29 28 26 23 22 22 21 20 19 18 18 17 17 17
18 19 16 15 15 10 15 32 36 36 35 34 33 34 33 33 35 36 35 35 36 36 38 39 37 36 37 36 33 31 30 31 32 31 31 31 31 29 28 28 27 26 27 27 24 24 24 23 24 25 25 27 30 29 30 32 31 30 30 30 31 31 30 29 30 30 30 29 29 28 28 28 28 28 26 23 21 20 19 18 17 17 16 16 17
17 19 18 15 14 13 8 18 30 36 36 33 33 36 35 34 36 37 36 35 35 36 37 38 38 37 37 37 33 30 31 32 33 31 31 32 31 30 30 29 27 27 28 27 26 25 23 23 25 28 27 28 30 30 31 32 31 30 29 29 29 29 29 29 29 28 28 27 27 27 26 26 26 27 28 25 23 21 19 17 16 15 15 16 15
16 16 17 16 13 14 12 8 17 30 36 32 32 36 36 36 37 38 37 36 35 35 36 36 36 36 36 36 33 31 31 32 34 32 31 33 31 30 31 30 28 27 29 28 27 25 24 25 28 30 30 30 31 31 32 32 30 30 29 28 28 28 28 28 27 27 27 26 26 26 25 25 25 25 27 26 24 23 21 18 15 14 14 14 14
15 14 16 17 14 13 13 10 7 19 31 31 31 35 35 35 37 38 39 39 38 35 36 35 34 35 36 36 35 34 33 33 34 33 32 33 31 31 32 32 29 28 30 30 27 26 27 28 31 33 31 31 32 32 32 31 29 28 27 27 27 26 26 26 26 25 25 25 24 24 24 23 23 24 24 24 23 23 23 22 18 15 14 13 13
14 13 15 16 15 13 12 12 11 9 19 25 29 33 34 34 34 37 39 39 39 37 36 36 36 36 37 38 36 37 36 34 35 34 33 35 33 33 34 33 31 30 31 31 29 28 29 30 32 34 33 32 33 31 31 30 28 26 26 26 25 25 25 24 23 23 23 22 22 23 22 22 21 21 21 20 21 22 23 24 21 18 16 14 13
13 12 13 14 15 14 13 12 12 10 10 17 24 31 34 34 33 34 37 39 39 39 38 37 37 35 35 38 37 37 37 34 34 34 34 36 35 34 36 34 32 32 33 32 30 30 32 32 32 34 35 34 33 32 31 29 28 26 25 24 24 23 23 22 21 21 21 20 21 21 21 21 21 20 19 18 19 20 20 21 21 21 19 17 15
12 12 11 12 13 14 14 13 12 11 11 11 17 28 34 33 34 35 35 37 36 37 39 38 37 33 32 37 38 37 37 35 35 33 33 36 37 36 36 35 34 34 34 33 31 32 33 33 33 33 34 36 35 33 31 30 28 27 25 23 23 22 21 21 21 20 19 19 19 20 21 21 20 19 18 17 15 15 17 18 19 19 19 18 16
12 11 11 11 11 13 15 15 13 11 11 11 11 21 33 32 30 32 33 33 31 32 35 36 36 33 31 34 38 39 37 35 36 35 35 36 37 37 36 37 37 34 33 32 31 33 33 34 35 33 31 33 36 36 33 31 29 27 25 23 21 21 20 19 19 18 18 18 18 18 19 19 18 17 15 14 13 14 17 17 16 14 14 15 14
11 11 11 10 10 11 14 15 15 12 10 10 10 15 29 33 27 26 29 29 26 27 31 33 35 33 33 33 36 39 36 35 36 37 37 37 38 37 37 39 38 35 34 32 33 35 35 35 35 35 33 30 32 36 35 33 32 28 25 23 21 19 18 18 17 17 16 15 16 16 16 15 15 14 13 12 12 14 16 15 12 10 10 11 12
11 12 12 11 10 11 12 14 14 12 10 9 10 12 21 31 29 26 28 29 26 26 27 29 32 32 33 33 35 37 35 35 38 39 39 39 39 39 38 37 36 36 34 34 35 35 36 36 35 36 36 33 31 32 35 37 33 26 22 21 21 20 17 16 16 15 14 13 13 13 14 13 12 12 12 12 12 12 13 13 11 11 11 12 14
13 14 13 12 12 11 11 12 13 13 11 10 10 12 14 21 29 31 30 30 30 30 28 27 29 30 32 33 34 37 37 37 38 39 39 39 40 40 38 36 35 36 34 34 35 35 36 37 37 35 34 36 34 33 37 33 25 22 21 18 16 16 15 14 14 13 12 11 11 12 11 12 11 11 11 11 11 11 11 11 11 11 12 13 13
13 13 13 13 13 12 11 11 13 13 13 12 10 13 14 12 18 26 29 30 30 31 30 28 27 27 30 33 34 38 39 38 37 37 39 39 41 41 38 36 36 37 36 35 34 35 36 37 39 37 32 31 31 36 37 28 23 25 21 12 6 7 9 9 11 10 9 10 9 10 10 10 10 10 10 10 10 11 10 10 10 10 11 12 12
14 14 14 15 15 14 13 12 13 13 14 14 12 14 18 16 14 19 25 27 27 30 29 28 27 25 27 30 33 36 38 38 37 37 38 39 40 40 38 37 37 37 37 36 36 36 37 38 38 39 37 30 26 32 31 24 29 29 14 6 6 6 2 5 11 9 6 7 7 9 10 10 10 10 10 10 10 10 10 11 11 11 12 12 12
17 17 17 17 16 15 14 13 12 13 15 16 15 15 18 20 19 19 20 19 20 26 28 27 27 27 26 28 31 34 36 37 37 37 38 39 40 39 38 37 37 37 36 37 37 37 38 39 39 38 40 37 31 31 26 20 29 31 18 10 8 3 2 10 14 8 5 7 7 8 9 9 11 10 10 9 9 10 11 11 11 12 12 11 11
19 19 18 17 17 16 15 13 13 14 15 17 18 18 20 21 23 24 24 20 16 21 26 27 28 28 27 27 29 32 34 36 37 37 38 39 39 39 37 36 36 37 36 37 37 37 38 39 41 40 40 41 38 34 27 22 27 24 19 18 11 5 11 17 11 4 5 8 8 9 9 10 11 10 10 9 9 10 11 11 12 12 12 11 11
18 18 17 17 17 16 15 14 14 14 16 17 18 20 22 23 25 27 29 30 26 25 28 29 29 29 28 28 29 31 34 36 37 37 38 38 38 38 37 36 37 37 37 37 36 37 39 39 41 41 40 40 40 38 31 27 28 21 16 19 11 8 20 22 12 6 5 5 8 10 10 10 10 9 10 10 10 10 11 11 12 12 12 11 11
16 16 16 17 17 17 16 15 14 15 17 18 19 21 24 25 26 26 28 31 31 29 32 33 32 31 30 30 29 31 34 36 37 38 37 37 37 37 37 36 37 38 38 38 38 38 40 40 39 39 39 39 40 40 36 32 31 24 17 17 12 13 22 22 20 16 7 3 6 8 9 10 9 9 10 10 10 10 11 11 12 12 12 12 11
15 15 16 16 16 16 16 16 15 16 16 18 19 21 24 27 27 26 26 27 26 26 30 34 35 33 31 31 30 30 32 34 36 38 37 36 36 37 37 38 38 39 39 39 39 39 40 40 39 38 37 39 39 39 38 36 33 28 23 19 15 19 19 15 19 18 9 6 6 6 10 11 9 9 10 10 10 11 12 12 12 12 12 12 12
14 15 15 15 15 15 16 17 17 17 17 18 20 21 24 26 27 27 26 25 24 25 27 31 35 36 33 31 31 30 30 32 35 37 37 36 35 36 37 38 39 39 40 39 37 38 40 40 40 40 38 39 38 37 38 37 33 31 28 24 23 24 18 12 16 15 10 8 5 7 14 14 10 11 12 13 12 12 12 13 13 12 12 12 12
12 14 14 14 14 15 16 17 17 18 18 18 19 22 24 26 27 27 26 26 26 28 29 30 34 38 38 34 32 31 30 32 33 33 36 36 35 36 36 37 39 39 40 40 38 38 39 41 41 40 38 38 38 36 36 35 33 32 31 29 29 29 23 18 21 20 13 10 8 9 14 14 12 14 14 14 13 12 12 12 13 12 12 13 13
Wind_Direction
166 174 174 173 171 168 167 165 165 163 163 163 162 162 164 163 161 159 159 158 156 156 152 150 148 145 144 142 141 140 139 138 135 131 130 130 127 125 124 123 121 119 116 113 112 111 113 115 112 113 110 106 104 99 97 98 97 99 102 102 104 104 105 105 103 102 100 96 95 96 95 95 93 91 90 90 91 95 91 87 96 88 77 81 86
166 172 174 173 172 169 167 167 167 165 164 163 163 163 164 164 164 162 161 160 159 159 154 153 152 149 147 145 143 143 142 140 139 136 135 134 131 129 129 128 125 123 118 114 113 112 113 115 113 115 115 111 111 105 99 98 96 100 103 103 111 111 108 109 108 105 100 96 95 95 92 90 90 92 94 91 85 89 92 87 90 83 76 74 75
163 169 173 173 172 170 168 167 168 167 166 164 164 165 166 165 166 164 163 163 162 161 157 156 155 155 152 149 147 146 144 142 142 139 139 137 133 131 132 128 123 121 117 115 114 114 115 115 113 113 115 114 117 112 104 101 97 98 101 105 115 114 110 110 108 104 97 88 82 82 81 84 83 86 95 93 88 86 87 87 85 80 75 70 70
161 166 171 172 171 171 169 167 168 169 168 165 164 167 168 167 168 166 165 165 162 161 160 159 159 160 157 155 151 149 148 147 146 143 142 138 135 131 129 126 125 127 125 122 117 118 117 115 113 111 113 115 118 117 111 106 102 100 103 111 115 114 113 110 106 102 99 90 81 73 65 83 88 84 91 92 94 90 87 86 82 79 75 67 68
159 164 169 170 170 171 170 168 169 170 170 167 165 167 169 168 169 168 168 166 162 161 162 162 162 164 162 158 154 153 153 152 150 146 144 140 137 132 129 126 127 130 126 124 121 121 119 116 114 110 113 117 118 118 116 111 108 104 104 113 117 116 111 103 99 95 95 88 88 82 59 70 84 87 90 91 97 97 93 88 81 78 79 75 73
160 163 169 170 171 172 171 170 170 170 170 168 166 167 169 169 169 169 169 166 163 163 163 164 164 167 165 161 158 157 156 155 152 147 145 141 136 130 127 124 121 122 121 122 123 123 120 118 115 113 113 117 119 118 117 114 112 109 107 114 120 118 105 96 95 91 92 89 96 100 78 64 73 88 91 90 95 96 97 90 84 86 89 84 81
160 163 169 171 171 173 172 171 171 170 170 168 168 168 169 168 168 168 168 166 165 164 164 165 165 167 166 162 159 159 158 155 153 149 145 140 133 129 128 125 122 123 124 125 125 124 122 119 116 115 115 118 120 119 119 117 114 113 112 114 122 120 102 92 90 89 95 97 100 99 86 76 77 90 93 93 95 93 98 96 94 99 97 94 95
158 162 169 171 173 175 173 172 171 170 169 168 169 170 168 167 168 168 168 167 166 165 165 165 166 167 164 162 160 159 157 155 153 147 142 138 135 134 134 131 130 130 128 127 127 128 124 121 119 118 118 120 121 121 121 119 117 116 116 117 126 123 100 88 84 83 85 86 96 95 94 95 92 97 97 96 98 96 100 103 101 97 97 102 103
158 163 168 171 175 176 175 173 172 170 168 168 171 171 169 168 168 168 168 169 168 167 166 165 167 165 164 163 160 159 157 155 151 146 143 140 141 143 142 140 139 134 130 131 131 131 127 123 122 122 122 122 122 124 123 120 119 119 124 124 128 121 100 92 88 83 78 83 103 99 105 105 97 103 103 100 100 100 104 107 101 94 95 97 91
160 165 168 171 176 178 177 174 173 171 168 170 172 172 172 171 169 168 168 169 169 167 167 167 167 165 164 163 160 158 155 152 148 146 146 143 148 151 147 144 141 134 132 134 135 133 129 127 125 125 126 126 126 127 125 123 124 129 133 131 128 118 102 94 84 85 83 96 112 94 101 108 101 108 111 110 108 107 113 114 102 94 96 95 92
162 165 168 173 178 179 177 175 174 171 168 170 173 173 174 173 171 169 168 169 169 168 169 168 166 165 163 162 160 156 154 150 147 147 147 147 151 149 143 139 133 130 132 135 137 135 131 130 128 129 130 129 129 128 127 126 130 140 140 132 127 116 101 88 75 90 99 96 104 93 99 110 111 115 116 119 118 117 123 118 107 101 98 98 96
165 167 171 175 179 179 177 176 174 171 170 171 172 174 176 175 172 170 169 169 169 169 170 168 166 165 163 162 158 155 153 150 149 150 148 147 147 141 136 133 130 130 133 135 136 135 134 133 131 132 132 131 130 128 128 132 141 147 141 130 124 112 99 92 79 99 117 100 97 104 112 118 115 116 118 119 121 123 121 111 107 102 97 95 93
169 169 174 178 179 180 179 177 175 173 172 173 172 174 179 177 173 171 170 169 169 169 170 169 166 165 163 160 157 155 153 151 152 151 148 147 143 139 136 133 132 133 134 136 136 136 137 135 133 133 133 132 129 126 127 136 147 145 135 129 123 110 101 99 92 103 116 103 97 104 114 119 116 119 123 120 120 118 109 103 102 99 94 91 89
169 168 176 180 178 179 180 178 176 174 174 175 173 175 180 178 174 172 171 170 170 170 170 168 165 165 162 159 158 156 154 154 152 151 149 146 142 138 137 135 135 136 136 137 137 138 139 135 133 135 135 133 127 124 125 133 140 135 131 130 121 110 106 104 103 105 104 104 105 107 108 110 115 119 118 113 111 109 103 100 99 95 91 89 89
171 171 178 178 177 179 179 179 177 176 176 176 175 176 180 180 175 172 173 172 171 172 171 167 164 164 160 159 159 156 157 158 155 153 150 144 142 140 139 139 140 139 139 140 138 139 143 139 136 137 134 131 127 128 130 131 133 131 130 128 121 116 112 107 107 105 103 108 111 112 107 105 112 112 109 108 106 103 99 96 94 92 90 87 86
173 173 175 175 176 178 179 179 178 178 179 177 178 179 180 181 176 173 175 175 172 171 171 166 164 163 160 160 160 160 162 162 158 152 146 145 146 146 144 144 144 142 142 142 140 141 143 140 141 139 135 133 131 134 135 131 131 132 132 127 123 121 113 108 110 110 111 116 113 109 107 109 111 109 107 104 102 100 94 89 88 88 88 86 83
170 170 169 173 176 177 179 179 178 180 181 178 179 182 183 182 178 175 177 177 174 172 170 166 165 165 163 163 164 165 166 162 157 150 149 155 155 152 149 147 146 145 144 142 141 143 144 142 141 140 137 137 138 140 137 130 132 133 131 128 126 122 115 115 119 117 117 116 112 110 110 111 111 107 105 102 98 98 94 88 86 84 83 83 83
161 162 163 169 173 177 179 179 179 180 181 179 179 183 185 184 181 179 180 177 175 174 170 166 168 167 166 167 167 167 165 160 156 155 159 162 159 154 150 148 147 146 146 146 144 144 147 144 141 142 142 142 145 143 136 131 132 134 134 132 126 121 120 119 114 115 119 116 113 112 109 110 110 105 104 103 99 96 93 89 86 83 83 82 81
155 157 162 166 171 178 180 180 180 180 180 180 180 182 184 185 184 183 180 178 176 176 172 169 170 169 171 170 168 166 162 160 160 162 164 163 160 155 152 151 148 149 148 146 146 146 146 145 145 147 144 144 144 139 135 133 135 138 140 133 122 121 121 116 110 111 114 113 112 113 111 109 108 104 99 97 95 91 89 87 84 84 85 83 80
159 158 163 167 172 179 182 184 182 181 182 180 180 181 183 185 186 184 181 181 180 178 174 172 171 171 174 169 165 165 162 163 164 165 163 162 161 155 152 150 148 149 148 146 147 146 145 149 154 148 141 142 139 134 134 134 138 144 142 128 121 121 119 116 114 112 111 110 109 111 111 106 102 99 96 93 91 89 86 86 85 83 82 83 81
166 163 166 170 174 179 182 186 184 183 183 180 181 181 183 185 185 185 183 186 185 182 177 174 173 172 173 167 165 165 164 165 164 164 163 163 162 153 148 148 148 145 144 146 147 147 149 155 153 144 141 142 135 130 132 135 138 143 140 124 117 118 117 116 115 111 108 106 103 104 104 101 97 95 95 94 91 88 86 85 85 84 83 82 81
172 169 172 173 175 179 182 186 185 185 184 182 183 181 182 184 185 185 185 188 187 185 180 177 174 171 170 167 167 166 165 165 164 164 165 165 161 152 150 151 150 145 146 150 150 154 155 152 145 143 143 140 133 127 127 132 137 139 134 121 113 114 114 113 112 109 106 104 101 101 101 99 98 97 94 93 90 89 87 87 87 86 85 83 81
182 173 173 175 176 178 179 182 185 185 183 183 185 183 181 182 185 186 188 188 189 187 183 182 174 169 171 168 166 165 164 165 165 166 166 164 158 153 154 155 153 152 156 157 158 160 153 143 139 141 138 136 131 125 125 126 133 133 124 117 112 112 112 110 110 107 105 104 102 101 100 100 99 97 94 91 90 90 88 87 87 86 85 83 80
197 181 174 175 178 178 176 180 183 183 181 180 184 186 182 182 183 186 189 188 189 190 186 181 174 171 171 165 164 162 162 165 164 165 164 159 155 155 157 158 160 162 163 162 161 154 145 139 137 135 131 134 131 128 130 125 129 129 118 116 112 111 110 108 108 105 104 103 100 98 97 98 97 95 93 92 90 90 89 87 87 86 84 82 79
208 191 178 178 181 179 177 178 180 181 180 178 180 185 185 183 183 185 188 188 189 189 186 182 175 174 170 164 164 161 162 166 164 164 163 158 155 156 159 162 164 165 165 160 155 148 144 139 130 126 128 136 134 131 132 124 126 122 114 114 112 110 107 106 107 103 102 100 100 99 97 96 94 93 91 91 91 89 89 87 86 86 84 82 80
227 201 185 182 183 180 177 176 178 180 181 180 178 182 187 184 184 186 185 188 189 186 186 183 176 174 170 165 166 163 164 168 165 164 163 161 159 158 162 166 166 164 163 156 150 149 145 136 127 129 134 139 133 126 126 123 123 117 113 113 110 109 107 105 106 103 101 99 100 101 99 97 95 95 93 93 92 90 90 87 86 85 84 83 81
269 231 198 184 182 181 179 177 178 180 181 182 179 181 187 185 186 188 185 187 187 185 187 185 179 175 172 170 169 165 165 166 165 163 163 164 164 164 166 168 166 162 159 154 152 150 145 138 138 139 141 144 134 123 124 125 122 118 115 115 111 110 108 107 109 106 105 102 100 99 99 99 97 97 96 95 93 92 92 87 86 86 84 83 82
294 278 220 189 183 181 179 179 179 181 181 182 181 182 185 185 187 188 186 188 187 187 189 185 181 178 177 175 171 167 165 165 162 161 163 166 167 168 168 167 164 159 156 152 151 151 151 151 149 146 148 152 140 128 128 126 122 121 118 116 115 113 111 113 113 111 110 107 104 102 99 99 99 99 97 96 95 94 92 89 89 88 86 85 83
294 292 261 205 188 181 178 179 180 182 181 180 181 182 183 185 186 185 186 190 188 188 189 185 181 180 180 178 173 168 167 165 162 163 164 164 164 166 169 167 161 159 156 152 153 157 160 159 153 152 156 157 148 136 134 129 124 125 122 117 118 117 116 117 117 116 114 112 110 108 105 102 99 99 98 97 96 94 91 91 93 90 88 87 84
292 287 280 250 206 186 181 180 180 182 180 179 179 181 183 185 185 184 185 189 188 187 188 185 182 183 182 179 173 170 171 168 164 166 165 163 164 165 169 167 164 165 162 157 161 167 166 163 160 159 160 156 150 142 137 132 126 128 127 120 118 118 118 118 119 119 118 116 114 113 110 106 101 98 98 97 96 96 93 93 95 93 91 89 86
290 289 284 276 262 207 186 184 183 182 180 179 179 180 183 185 184 184 186 188 187 185 187 186 184 185 185 179 173 173 174 170 167 169 167 165 166 169 171 169 168 170 167 164 168 170 167 168 167 164 163 156 150 144 138 134 129 129 129 123 119 117 116 117 118 119 120 119 118 117 115 112 107 102 97 96 96 96 96 96 95 95 93 89 89
283 294 299 284 284 279 199 189 188 183 179 181 181 180 183 185 183 184 186 185 184 185 187 189 187 188 187 179 174 174 175 171 169 171 170 169 169 171 173 171 171 173 171 169 167 166 167 170 170 167 164 157 150 144 138 136 132 129 129 126 122 121 117 117 118 118 120 121 121 120 119 118 115 110 103 97 97 98 99 99 97 97 95 93 92
278 286 298 290 276 286 257 197 193 186 180 180 181 181 183 185 183 184 185 183 183 185 187 190 189 189 186 180 177 175 175 173 171 172 171 171 172 173 174 172 171 174 173 168 165 166 169 170 168 165 162 158 151 143 138 135 132 129 128 127 125 124 122 121 121 121 122 122 123 124 123 123 121 118 112 104 99 98 98 99 99 100 98 96 93
275 276 283 286 273 268 269 227 195 186 182 181 180 181 183 184 184 185 186 185 185 186 188 189 188 187 185 183 182 177 175 175 173 171 171 171 173 173 172 171 171 173 171 166 166 170 174 171 165 162 160 159 151 145 141 135 131 130 129 129 128 127 128 126 126 127 128 128 128 127 127 127 125 124 121 115 110 107 107 103 98 102 102 99 95
268 271 270 276 278 268 266 263 228 188 182 182 179 179 181 181 182 185 186 187 186 186 188 188 187 187 184 183 184 181 176 175 174 172 172 172 173 173 170 170 174 175 172 170 172 172 173 170 166 162 157 155 150 145 143 137 132 131 130 130 129 130 131 131 133 135 136 136 135 133 131 130 130 131 129 126 124 123 121 111 99 99 103 101 97
268 267 265 273 278 276 273 266 267 225 182 179 179 180 182 180 181 184 185 186 185 185 186 185 185 187 187 185 186 186 179 172 174 173 172 173 175 174 172 173 176 176 174 176 178 175 171 167 166 168 160 152 150 144 141 139 133 129 130 130 129 131 132 133 137 138 140 142 140 137 134 134 134 135 136 136 134 132 130 121 110 108 108 101 94
269 271 265 269 271 271 273 262 261 259 205 182 182 182 183 182 182 183 183 183 183 183 184 184 184 184 188 188 186 187 181 174 175 174 172 175 176 175 174 175 177 176 174 177 179 176 173 167 163 168 166 157 152 145 138 135 131 127 126 126 127 130 131 133 137 138 142 143 141 141 139 138 138 138 138 138 137 135 137 134 128 126 121 109 96
260 270 267 261 259 261 265 262 254 252 236 206 189 184 183 183 183 183 183 182 183 183 182 183 183 183 186 189 187 185 181 178 177 176 175 177 178 177 175 176 176 174 174 176 179 176 175 171 163 162 167 165 157 149 140 133 128 124 121 121 125 128 128 133 137 139 142 143 143 145 144 144 143 144 143 141 136 134 141 143 140 137 131 120 103
250 259 266 259 254 255 259 264 258 251 239 221 213 193 183 182 183 183 182 180 182 184 183 182 181 182 184 187 188 186 184 182 179 179 181 179 179 179 177 176 177 175 174 175 176 174 172 170 165 159 161 164 161 154 144 134 124 119 118 116 118 124 127 132 136 140 142 143 147 147 148 149 150 152 152 151 145 140 144 146 146 142 134 125 105
246 249 260 262 256 251 251 256 256 257 243 221 242 216 184 180 180 180 183 182 179 178 180 183 181 182 184 185 187 186 185 184 181 182 185 183 180 181 178 177 180 180 178 176 174 173 171 167 164 161 156 152 153 152 147 138 122 110 109 111 111 115 119 125 129 135 138 140 145 147 149 151 154 157 156 157 153 148 150 150 150 145 134 127 116
240 241 248 255 255 249 244 249 251 254 247 224 247 236 187 178 180 179 180 182 180 173 173 180 182 184 187 188 189 187 183 183 184 184 185 184 181 180 179 178 182 184 183 181 176 174 174 169 164 163 160 153 148 147 148 143 127 111 104 99 99 102 106 115 120 126 133 136 143 146 150 152 153 156 154 155 155 153 155 155 152 145 135 133 132
232 238 241 247 251 248 242 243 244 245 240 222 232 233 198 180 181 181 178 179 183 179 173 175 181 186 191 194 193 189 187 185 184 184 184 184 180 178 179 180 181 183 182 179 177 175 173 171 164 160 161 160 157 153 152 148 135 128 125 105 90 90 92 102 112 121 129 133 145 147 149 154 151 152 154 156 159 158 161 163 160 156 149 146 146
225 234 239 242 245 247 241 235 233 234 231 218 213 213 205 189 176 176 176 177 183 184 179 178 182 185 189 193 191 189 190 188 186 185 185 184 182 180 181 182 182 182 179 175 175 174 172 172 169 165 162 160 162 163 162 161 149 137 130 122 117 102 85 90 104 117 138 142 151 153 152 155 149 151 158 159 165 166 168 171 170 170 166 161 157
211 220 231 235 238 241 238 235 230 226 225 216 204 197 196 193 179 172 174 174 178 182 181 182 186 186 185 188 189 189 191 189 188 188 186 185 184 183 183 183 183 183 182 177 175 176 175 175 174 170 166 160 162 169 170 170 163 151 131 105 131 139 128 129 114 105 134 148 154 162 158 157 152 154 163 164 166 168 171 174 175 176 175 173 168
209 214 223 230 233 235 234 234 229 223 222 216 206 195 189 189 182 172 169 167 168 173 174 177 185 189 188 188 190 191 191 189 189 189 188 187 185 185 184 184 185 185 185 183 182 182 181 179 179 177 174 170 169 173 175 177 175 168 158 143 137 148 180 144 131 114 130 144 153 166 162 161 161 163 167 165 165 168 172 175 178 180 181 182 178
216 218 222 227 230 232 231 230 225 218 217 216 209 199 191 189 185 178 172 168 166 169 171 173 180 186 187 189 191 193 192 190 190 190 189 189 187 187 187 186 187 187 188 189 186 185 183 183 183 182 182 180 174 173 177 182 182 177 172 170 168 176 160 147 138 111 132 146 153 161 165 168 172 174 169 164 167 172 175 177 180 182 182 185 182
220 222 220 221 224 226 228 228 223 215 210 212 212 205 198 195 194 192 187 183 180 179 178 178 182 186 187 191 192 192 193 191 189 189 190 190 190 189 189 189 190 192 192 191 189 188 187 187 187 186 184 183 177 174 177 180 181 185 186 180 176 178 169 161 158 145 135 160 168 166 175 180 181 182 174 171 175 176 178 180 181 184 184 184 184
220 221 217 217 219 220 224 226 223 218 210 208 210 208 202 200 200 199 198 196 191 185 183 183 184 187 188 192 195 194 194 193 189 188 188 191 192 191 191 191 192 193 193 193 194 194 192 188 189 189 186 185 183 179 178 179 181 185 186 181 178 175 174 173 172 162 137 142 167 171 179 182 183 182 178 177 178 178 179 181 183 187 187 187 188
216 218 219 220 220 217 217 220 222 222 216 209 208 207 204 202 202 200 199 200 195 188 184 182 182 184 186 190 195 197 195 192 190 189 189 192 194 194 194 194 194 194 194 195 196 195 193 190 189 190 188 188 189 185 182 182 183 183 179 172 160 156 163 172 171 160 133 136 165 177 171 170 175 179 179 177 179 184 184 185 189 191 190 191 193
210 216 218 219 219 216 215 216 220 224 224 218 209 207 205 202 202 201 199 196 191 187 183 180 178 180 183 185 191 196 194 193 192 192 192 195 197 198 198 198 197 198 198 197 195 193 193 193 192 192 192 191 190 189 189 187 186 185 182 172 158 153 154 157 165 160 135 130 144 163 165 165 163 167 179 182 183 191 192 191 194 195 194 195 199
204 206 210 214 216 216 216 218 221 223 227 226 216 210 208 205 203 203 200 197 193 188 183 181 180 179 180 184 191 196 195 195 195 194 195 196 199 201 203 202 201 201 201 199 197 195 194 194 195 194 194 194 192 192 192 189 187 188 187 183 175 171 170 171 174 170 153 136 130 146 162 163 156 158 174 187 190 195 197 195 197 199 199 198 203